GFSNGP_250_spd_000.txt.gz
Wind_Speed
91 98 104 102 97 96 92 82 78 67 65 65 66 74 69 66 60 57 55 56 55 55 51 48 48 49 49 52 53 52 54 54 56 56 57 56 49 40 45 48 50 53 57 59
87 94 106 107 103 99 95 92 85 80 70 71 72 77 74 67 64 62 62 63 61 59 54 53 52 52 53 57 56 57 59 61 61 61 57 53 52 46 47 51 53 59 56 59
80 93 100 109 105 103 97 96 92 86 73 78 78 80 76 73 67 66 65 66 64 63 58 56 54 55 60 62 61 63 65 66 64 61 58 54 53 51 52 56 59 62 67 62
76 86 97 95 103 104 103 98 94 92 86 82 82 82 78 74 68 68 68 68 67 65 61 59 57 61 63 67 66 68 70 69 67 65 59 55 52 54 57 61 65 69 70 68
66 80 84 87 98 107 107 101 96 91 89 84 82 82 83 75 73 71 70 70 70 68 64 61 60 65 69 71 71 72 72 70 68 65 62 59 59 60 62 68 69 69 71 73
62 70 75 88 88 94 104 102 95 93 86 85 84 87 88 80 77 76 74 74 73 71 69 66 68 71 74 72 72 73 74 72 67 64 63 64 63 66 69 71 71 70 72 67
59 65 71 76 82 87 97 93 98 93 92 88 87 92 89 84 83 79 78 77 76 76 74 73 74 75 74 75 74 72 72 70 69 66 63 65 70 72 74 74 69 67 68 68
56 57 62 64 71 82 85 90 97 95 94 92 89 91 88 86 85 83 82 82 80 79 79 79 77 77 79 76 73 71 70 71 71 70 70 72 74 74 74 72 69 68 70 70
55 55 49 52 61 66 72 82 92 95 93 93 91 90 87 86 86 85 85 84 82 81 82 80 81 79 80 75 72 70 69 70 71 72 74 76 76 75 74 72 72 73 74 67
50 49 42 49 52 58 66 73 82 91 91 92 90 88 86 85 84 85 82 82 82 82 80 80 81 78 79 77 73 70 71 72 72 74 75 75 73 74 74 72 74 72 68 70
44 42 43 46 50 54 59 66 72 83 88 88 85 85 84 85 85 82 80 78 80 79 78 78 78 77 79 76 73 73 73 75 76 75 73 71 73 72 71 73 76 77 77 75
42 40 33 34 44 59 50 54 73 73 80 82 80 82 81 81 82 82 78 76 77 78 77 77 78 79 79 77 75 74 76 77 76 72 75 72 72 73 76 80 80 79 78 79
45 38 34 35 29 34 44 46 52 61 74 74 76 78 78 77 78 78 76 77 79 82 80 81 81 81 79 78 76 77 75 74 73 71 72 74 76 80 84 82 82 82 84 84
47 47 38 22 29 39 38 31 35 50 58 71 73 74 75 76 77 77 78 77 79 81 80 79 79 79 78 79 76 72 70 70 68 72 74 78 82 82 80 81 81 83 84 86
56 66 51 50 33 36 39 42 33 25 32 45 56 68 75 75 76 75 77 76 78 81 80 76 77 78 75 72 71 71 71 72 73 74 79 83 85 85 83 82 84 84 87 87
70 64 62 58 53 49 49 43 37 36 53 43 40 47 50 56 64 67 66 68 72 72 67 72 76 75 73 71 69 72 74 76 76 81 84 86 86 87 86 85 85 82 78 77
63 68 64 59 62 66 63 49 49 49 51 47 43 45 46 48 51 56 52 56 60 62 66 67 64 65 70 71 75 76 77 81 83 82 85 86 85 82 82 81 80 81 83 82
69 71 72 74 67 67 59 53 57 53 57 52 49 51 50 51 52 56 57 59 61 63 64 67 69 70 73 74 75 76 78 80 83 84 82 83 82 82 81 81 84 85 85 89
69 74 74 75 74 70 75 69 63 64 69 62 57 63 60 61 68 63 70 68 68 68 72 72 72 70 69 73 75 77 79 81 78 79 80 79 77 79 83 86 87 90 91 94
75 79 84 80 84 76 73 69 72 64 63 73 79 77 72 67 71 77 80 75 74 79 73 72 69 69 71 76 77 76 78 77 77 76 76 78 80 83 86 89 92 93 96 89
75 82 80 79 76 81 76 77 74 74 65 58 61 70 70 69 69 70 76 74 69 69 70 71 70 70 74 77 75 76 77 77 77 78 81 83 85 88 90 92 93 93 80 74
56 69 80 80 85 81 79 77 77 80 78 80 80 80 78 80 75 71 71 70 71 71 73 71 72 74 74 75 76 77 77 79 81 83 85 88 90 91 92 92 85 75 67 60
64 66 68 74 76 85 91 92 95 91 92 90 88 83 77 79 71 73 75 75 78 80 76 74 76 77 77 78 79 82 84 85 85 89 91 90 90 89 88 77 68 59 50 47
71 72 73 75 79 80 81 85 86 94 101 102 98 92 92 90 86 75 79 80 78 76 76 77 75 76 78 80 83 86 88 89 91 92 89 89 87 79 69 58 49 47 45 41
76 85 81 81 84 83 77 77 79 83 86 92 90 97 100 94 86 86 93 82 79 82 82 82 83 85 83 84 87 88 89 89 87 86 86 81 71 60 52 47 44 40 37 37
73 75 77 79 76 77 79 76 74 74 76 74 81 91 89 86 88 83 81 84 84 83 84 84 86 84 85 86 85 83 84 84 84 82 75 65 55 49 44 42 40 38 37 38
76 73 72 74 76 77 77 80 80 79 78 81 83 80 77 79 81 80 81 84 87 86 84 81 83 85 85 84 84 84 82 82 80 70 62 55 50 47 44 42 42 41 41 42

GFSNGP_250_spd_003.txt.gz
Wind_Speed
60 67 76 85 98 100 101 95 91 82 82 75 72 68 73 65 65 64 60 56 54 53 51 51 48 51 49 50 52 53 55 53 52 54 52 53 54 56 54 56 58 58 57 56
64 63 72 81 87 101 103 100 96 91 87 81 79 77 73 75 70 69 64 60 59 57 55 53 51 54 54 57 58 58 56 54 55 59 58 56 59 60 58 57 58 59 57 60
64 64 69 80 76 86 100 104 99 99 85 89 88 82 76 75 79 75 70 66 63 62 59 59 58 58 58 61 61 61 58 58 61 63 63 63 62 61 59 59 56 56 58 60
67 69 67 57 76 85 97 106 107 102 98 96 89 84 80 77 85 80 75 71 65 66 64 63 63 61 60 64 64 64 65 65 67 66 66 67 66 64 63 61 60 59 58 61
73 67 56 61 78 79 85 95 102 104 100 99 94 87 85 80 87 84 81 75 72 73 71 69 67 65 62 66 67 67 70 71 71 71 70 71 70 68 67 66 63 60 63 63
70 61 54 55 72 70 80 83 95 104 105 103 97 97 83 83 86 92 91 81 75 79 77 74 71 67 66 69 70 72 74 74 74 74 74 73 72 71 71 68 66 68 69 69
65 59 55 66 56 65 76 74 88 97 102 105 104 98 95 84 88 93 98 86 83 85 82 79 76 72 70 73 75 77 77 77 77 75 75 75 73 73 72 71 71 71 73 74
63 63 58 50 55 63 70 67 74 89 99 104 105 105 94 92 93 97 99 92 90 87 86 83 80 78 76 77 79 80 81 79 78 77 75 76 74 73 73 74 76 75 74 76
63 64 52 49 55 63 65 63 66 76 92 98 104 103 100 97 96 98 98 94 90 85 89 86 83 82 80 81 83 82 82 82 81 78 76 76 76 75 74 77 77 76 78 80
66 56 50 52 55 54 56 54 58 64 79 92 96 99 100 99 99 97 96 92 88 86 85 86 85 84 85 85 85 83 83 83 81 77 75 73 76 77 78 79 76 78 80 82
63 50 51 52 49 48 47 48 47 47 65 76 85 88 93 95 94 94 92 90 88 86 86 84 81 82 82 82 83 83 80 80 78 77 76 79 79 79 80 80 75 81 81 80
64 56 53 47 44 40 41 34 39 45 40 49 68 79 82 89 90 91 91 90 87 86 85 83 81 81 81 79 79 79 79 79 80 79 81 81 80 78 78 77 80 82 84 84
59 63 56 45 41 38 39 43 41 38 40 49 58 64 70 77 84 84 85 84 84 82 82 81 79 79 80 81 81 78 79 80 80 83 82 83 83 85 84 82 82 84 83 84
60 57 54 42 34 29 36 45 37 36 36 32 43 58 61 66 73 76 78 78 77 76 78 78 77 74 74 77 81 82 81 81 80 79 84 82 80 80 78 78 81 79 83 86
60 49 45 39 28 22 27 22 29 35 35 35 36 40 47 59 66 71 71 71 72 73 74 73 75 72 73 76 77 80 74 72 73 74 72 74 75 78 81 82 80 79 87 87
49 42 36 42 34 31 28 29 31 31 29 28 22 21 25 37 47 57 66 68 68 68 68 67 66 70 72 76 74 70 67 69 72 74 73 76 77 78 79 80 82 81 86 83
54 50 42 50 48 47 49 45 43 36 33 29 26 27 28 25 24 32 42 50 56 55 50 54 66 69 65 76 69 64 70 72 68 67 74 79 78 79 79 81 85 85 79 80
52 55 60 59 51 53 46 48 47 44 42 36 34 30 34 33 32 42 44 41 41 45 47 50 55 59 61 63 66 64 65 69 71 73 72 76 80 81 83 85 84 84 83 83
55 59 62 65 66 61 54 56 60 49 47 47 42 41 43 43 43 48 47 47 48 52 56 57 58 59 62 67 69 68 68 70 70 75 80 79 80 83 84 85 86 84 83 85
55 61 59 65 69 70 66 60 63 63 58 55 52 53 52 54 58 61 55 54 60 57 60 65 66 67 69 74 79 80 82 80 79 81 81 80 79 83 85 84 84 87 90 93
59 59 61 69 71 73 67 65 70 71 73 70 58 58 53 60 65 61 64 65 68 70 72 75 78 77 79 82 83 84 86 87 83 79 80 82 81 83 84 86 90 93 94 95
59 56 53 57 70 81 80 79 79 77 74 70 69 70 74 75 74 72 69 77 80 80 79 80 84 87 83 83 85 83 83 84 86 86 89 88 89 89 92 91 94 95 94 87
67 65 62 63 63 68 72 77 80 79 78 74 72 71 75 77 86 81 74 75 75 70 71 75 79 82 85 78 81 82 88 90 90 90 91 91 93 94 95 99 96 93 87 84
72 67 64 65 71 71 71 73 76 80 81 79 80 78 81 84 84 85 88 90 87 85 87 88 84 85 90 91 97 95 90 85 90 94 94 94 99 99 96 90 85 86 83 73
64 62 63 64 73 79 83 79 78 81 85 87 85 85 85 84 85 88 86 87 88 90 91 94 96 97 98 100 107 100 95 98 98 99 100 96 93 93 87 84 83 80 71 60
62 62 64 69 70 73 75 78 81 88 90 87 91 95 98 100 101 103 101 101 103 106 108 107 101 96 91 91 90 96 99 88 86 89 92 87 84 84 83 83 79 72 60 53
65 68 70 72 76 77 79 81 82 83 87 90 93 97 99 99 99 100 101 101 98 99 100 99 90 87 89 93 90 88 89 90 92 90 86 84 83 82 81 80 75 63 57 52

GFSNGP_250_spd_006.txt.gz
Wind_Speed
69 72 75 66 59 58 66 76 89 82 84 84 83 78 76 70 65 65 65 60 55 56 54 52 53 52 49 49 46 49 51 52 51 52 54 55 55 54 54 54 55 58 61 65
82 76 77 72 66 50 56 62 80 85 90 89 86 85 84 79 72 73 69 68 61 61 57 58 57 57 55 53 54 55 56 58 55 56 58 59 59 58 57 56 58 60 64 64
87 81 81 77 47 61 60 65 72 84 87 93 96 94 92 88 84 74 72 71 66 63 65 64 62 61 60 58 59 61 61 62 61 62 63 63 62 59 59 60 61 62 64 63
89 85 85 54 67 67 62 62 69 73 77 91 98 98 95 91 90 79 73 79 71 72 68 66 66 62 62 62 64 65 65 66 65 66 68 66 64 62 62 64 65 65 66 65
92 84 71 68 66 65 64 55 62 76 79 84 95 101 102 97 94 90 83 75 81 81 79 70 69 70 68 65 66 68 72 68 68 68 69 69 68 67 67 70 69 69 69 68
81 76 65 56 66 61 67 57 68 74 77 82 85 100 99 99 98 96 93 84 82 92 87 69 76 77 72 71 71 72 76 73 71 73 72 72 71 72 73 74 75 74 73 73
69 73 65 71 64 63 70 57 59 63 72 78 84 88 93 102 104 100 96 93 86 92 94 78 81 80 79 78 75 75 76 77 77 78 78 76 77 79 78 78 78 78 76 76
77 70 69 70 53 56 51 59 54 59 63 73 79 86 95 98 104 98 99 94 91 103 93 85 85 83 82 80 78 77 79 81 81 82 83 81 84 84 83 79 79 78 77 77
70 64 70 66 64 66 67 59 54 53 62 67 70 74 81 91 96 100 98 99 100 101 98 90 86 85 85 83 81 80 80 84 86 87 86 85 84 86 85 81 79 76 75 77
67 73 70 63 62 59 54 49 53 52 53 54 57 59 68 77 91 98 102 104 103 101 97 91 87 89 89 87 86 85 84 85 88 89 87 85 85 84 82 80 76 75 76 77
66 67 55 54 52 50 45 49 48 42 43 44 31 29 53 65 75 85 93 96 99 100 98 95 91 90 90 87 85 84 84 86 87 85 86 83 84 81 79 77 78 77 77 78
59 53 51 56 56 46 48 48 38 39 39 25 22 20 30 34 48 64 82 90 95 99 100 95 93 90 87 86 84 82 83 84 84 83 82 80 77 74 79 78 75 78 77 79
50 47 49 52 52 56 50 41 34 35 35 35 33 31 19 25 31 47 59 72 87 89 93 94 92 89 86 85 84 84 84 84 82 80 77 77 78 77 80 76 75 74 76 77
53 47 46 50 63 55 43 40 32 33 34 40 45 45 42 26 45 52 52 57 61 71 81 83 83 82 81 80 78 77 78 77 73 75 74 75 78 77 74 71 69 77 76 78
53 62 68 53 39 38 43 42 31 35 35 31 45 51 56 57 59 62 62 57 53 54 60 67 70 67 68 70 70 71 71 69 71 68 68 69 72 74 72 66 73 72 76 80
61 53 53 46 37 39 41 38 34 35 37 39 39 34 47 62 62 59 57 59 56 56 58 56 55 58 60 63 65 66 67 66 67 67 69 73 74 76 73 73 69 72 71 81
74 62 54 53 52 50 36 34 35 32 27 25 27 29 26 28 32 34 25 34 42 44 50 54 58 59 57 61 60 62 60 62 67 67 71 75 81 86 79 69 69 73 77 87
76 75 72 65 59 47 43 48 46 45 41 32 26 27 22 21 32 31 34 44 47 44 47 49 54 53 55 55 55 59 69 80 80 79 76 77 74 68 73 77 80 79 81 85
66 68 65 66 62 52 50 51 49 44 47 38 33 30 31 35 24 24 32 35 36 40 38 38 38 37 42 55 57 53 59 71 71 64 64 68 72 75 79 79 82 83 88 88
70 68 71 70 65 50 56 55 58 47 54 48 48 59 51 42 40 40 36 44 39 38 41 43 44 43 44 48 50 55 62 66 68 70 73 75 77 82 88 89 88 85 89 90
62 72 68 60 51 60 54 60 56 55 51 52 57 58 50 47 50 44 40 41 48 51 46 51 51 56 57 56 59 61 67 71 77 79 81 81 87 91 87 86 88 87 98 101
56 56 54 52 54 54 56 64 67 64 61 61 65 61 61 58 54 53 52 52 54 59 61 61 63 70 66 70 74 76 76 81 81 82 86 89 89 86 84 86 90 97 104 96
61 58 56 54 57 59 60 61 69 69 71 70 66 68 70 69 68 66 64 62 64 64 62 62 66 71 74 75 80 83 85 86 88 90 85 85 86 86 94 98 94 91 95 95
66 63 60 61 62 63 63 67 69 73 70 73 76 72 71 70 70 74 76 76 73 75 76 80 84 83 84 85 86 88 92 95 90 85 90 92 96 95 94 100 94 90 92 87
73 67 67 62 67 68 68 69 71 72 79 86 82 85 89 86 85 85 85 84 84 85 86 84 83 87 87 88 92 92 91 92 94 97 96 96 99 100 104 96 93 94 91 87
71 69 66 71 72 72 71 70 71 69 71 76 83 87 89 85 84 83 87 89 89 91 88 89 89 91 93 92 94 92 93 97 98 103 106 106 103 98 94 94 93 94 92 89
66 66 66 69 73 78 79 79 80 78 77 81 83 85 86 90 94 93 90 90 90 91 91 92 94 97 100 101 104 106 105 107 109 108 106 101 105 101 100 101 94 87 88 86

GFSNGP_250_spd_009.txt.gz
Wind_Speed
73 71 76 65 62 60 54 45 46 44 54 69 77 84 80 77 74 74 69 64 62 54 52 54 55 52 50 49 48 48 51 53 54 52 50 51 51 53 53 52 52 54 55 55
84 78 77 77 68 62 61 56 50 48 45 53 66 84 86 84 83 77 75 69 68 65 57 56 57 56 56 52 51 52 56 57 59 58 55 54 57 56 55 53 54 55 57 57
86 85 85 89 64 69 67 64 60 48 42 54 65 69 81 87 88 83 80 79 73 69 66 63 61 63 61 60 56 55 59 62 63 64 61 59 60 60 58 59 60 60 61 60
95 92 98 72 76 76 76 69 63 54 53 56 57 64 68 84 93 90 84 81 79 73 69 67 66 65 65 64 63 61 63 67 68 69 69 64 63 63 61 63 66 69 68 60
105 99 91 85 76 83 85 72 76 65 58 56 58 61 63 67 86 92 88 91 87 79 78 75 70 69 66 67 69 68 67 70 72 72 73 70 68 64 64 63 66 53 48 73
111 105 94 78 87 93 86 81 79 69 58 56 51 53 55 65 69 79 91 91 93 87 86 80 79 75 75 73 72 71 72 74 75 74 74 74 72 69 67 66 64 73 80 79
111 104 95 91 94 92 89 85 79 70 60 56 56 60 57 63 73 74 81 93 95 97 94 88 84 80 82 82 78 78 77 74 76 77 76 76 74 72 72 73 74 77 80 81
107 105 100 97 96 93 88 81 76 70 52 49 46 47 54 59 63 72 78 88 96 99 98 95 91 87 85 85 84 83 82 80 78 80 82 80 74 76 78 77 81 84 84 83
99 105 104 98 87 86 88 79 74 60 44 42 46 49 53 60 64 66 72 78 85 91 100 98 96 92 92 91 88 90 89 85 85 83 84 83 79 81 82 84 84 84 86 87
95 89 92 93 86 80 73 69 65 55 46 42 44 48 46 52 61 62 59 61 70 79 85 89 94 96 97 97 94 89 88 89 90 90 87 86 82 86 86 85 86 87 87 83
83 76 77 78 57 49 58 71 54 43 43 49 55 53 51 49 41 22 17 24 39 56 70 79 85 88 96 98 97 93 89 85 89 91 88 86 87 88 86 86 86 85 85 84
79 67 57 59 66 39 50 57 53 57 58 60 52 50 35 27 22 8 15 34 59 60 51 62 70 74 80 86 93 95 92 91 89 85 83 85 86 85 85 85 85 82 80 78
73 62 51 53 64 67 56 55 53 57 57 50 42 30 33 33 31 35 36 45 73 55 56 44 47 54 61 70 80 81 87 85 86 86 85 86 85 84 83 82 81 80 78 77
65 58 49 55 59 57 55 56 58 55 41 36 33 35 41 39 43 46 38 36 66 73 52 48 37 44 55 62 67 72 75 78 78 78 78 81 83 80 76 71 70 70 69 65
55 58 48 39 51 55 57 58 55 51 42 37 30 44 49 46 50 58 57 52 48 62 56 51 48 48 47 51 56 62 64 67 68 70 75 74 72 68 67 58 65 69 66 63
61 62 58 59 59 55 46 51 50 46 49 41 35 52 58 57 56 51 57 57 60 50 48 43 39 40 40 44 48 53 56 57 55 55 55 58 54 52 54 53 59 60 64 70
58 62 64 66 54 52 51 45 42 48 47 42 36 46 63 66 66 62 57 53 56 64 64 66 61 53 38 31 28 37 38 44 39 51 51 61 65 61 55 61 59 63 70 79
61 58 58 61 58 56 51 49 43 36 30 38 39 45 62 73 73 68 67 59 61 59 54 58 45 51 45 36 32 48 57 59 45 46 56 63 57 55 53 59 64 69 76 79
58 59 60 57 59 64 59 57 47 37 32 42 42 46 45 58 72 72 72 65 43 50 41 45 44 47 53 51 46 52 54 54 63 69 67 68 66 63 56 55 57 62 69 70
57 60 59 53 53 55 56 55 53 46 36 44 43 41 38 40 43 46 51 52 46 43 37 46 52 47 47 47 43 47 47 46 44 44 50 58 58 61 59 64 68 70 72 76
63 62 60 59 57 58 59 59 52 53 48 46 49 46 48 45 44 44 44 39 44 48 40 45 41 41 42 44 44 46 43 49 52 56 56 55 60 63 70 72 71 75 79 87
64 60 64 74 70 63 60 62 61 61 58 54 58 57 54 53 52 51 47 48 47 50 50 53 51 54 55 56 53 48 53 56 58 62 61 64 66 72 75 79 83 84 85 86
59 62 61 62 65 66 66 67 70 70 66 58 58 60 64 59 59 61 61 60 68 66 64 65 57 55 53 57 56 60 57 59 64 72 72 78 77 82 84 85 88 91 89 90
65 66 69 67 68 67 68 68 69 69 67 65 67 64 66 68 66 61 66 71 75 74 67 63 62 64 61 62 63 67 69 69 71 72 75 78 84 87 87 89 90 93 91 91
61 60 65 65 66 69 69 63 63 65 66 65 64 65 68 66 65 71 77 72 73 80 75 75 79 79 77 78 81 77 78 78 81 83 85 87 87 86 89 90 89 88 91 95
67 68 70 68 70 68 66 66 63 64 67 66 66 68 71 71 73 77 76 77 78 79 77 80 81 83 84 85 85 86 90 92 94 93 89 89 89 87 90 91 93 99 103 102
73 74 75 76 78 78 80 79 75 75 73 74 70 71 76 79 80 82 82 85 84 84 86 85 85 84 86 90 93 92 92 94 95 94 98 99 97 98 98 100 102 104 106 107

GFSNGP_250_spd_012.txt.gz
Wind_Speed
66 68 69 62 59 55 46 40 32 36 38 43 56 61 73 74 75 71 70 64 63 54 56 52 50 51 49 50 49 48 51 50 48 47 47 47 47 47 49 50 47 48 49 52
72 75 74 70 65 57 52 51 43 40 40 46 48 49 46 57 75 79 77 71 70 64 60 57 55 56 56 55 54 52 54 57 54 53 53 52 51 50 52 54 50 51 52 53
82 83 81 86 61 64 62 58 55 48 51 56 49 55 50 46 55 69 81 79 74 71 68 63 63 62 59 61 60 57 58 61 62 60 59 57 56 55 56 56 55 55 54 52
93 93 98 70 74 72 71 68 64 56 51 54 55 51 58 53 41 52 61 72 83 78 79 75 71 67 66 66 66 66 64 64 66 67 67 63 61 59 60 60 59 58 56 51
104 102 95 88 79 79 80 75 73 63 55 55 56 55 56 60 54 48 48 55 69 82 83 81 76 72 71 69 72 70 66 68 71 73 73 71 66 65 64 64 62 62 60 60
114 109 104 90 88 86 89 88 79 68 62 54 57 64 59 59 60 59 54 55 66 72 83 87 83 81 77 71 73 72 73 75 77 75 72 72 72 72 72 69 65 68 67 66
123 117 108 98 97 96 97 91 80 74 69 59 62 63 64 64 65 60 55 49 54 65 69 75 83 85 83 78 75 74 79 83 82 78 76 76 77 78 79 74 74 73 72 77
126 128 117 104 102 103 101 95 82 77 70 65 66 65 67 66 62 65 60 55 53 57 62 65 66 72 78 80 79 83 84 87 84 84 84 82 83 82 82 80 83 79 80 83
134 129 128 115 108 104 104 98 88 79 74 74 70 69 67 67 63 62 63 54 54 57 56 58 57 61 64 70 79 85 88 90 90 89 89 89 87 86 84 86 89 88 86 85
125 126 126 113 109 106 104 96 88 83 81 77 75 69 69 64 59 57 56 53 57 54 48 43 42 37 39 47 53 63 74 85 91 92 92 91 86 84 86 90 89 90 83 75
111 113 116 99 88 83 92 93 88 82 80 78 73 67 72 59 54 58 58 56 49 43 42 43 36 31 30 33 34 36 48 66 78 80 82 84 82 76 73 62 60 63 68 71
102 95 104 90 70 71 65 77 74 74 69 64 62 64 64 54 46 45 43 37 19 7 8 33 51 57 51 44 60 66 54 55 62 60 62 62 62 43 62 70 78 75 72 83
99 98 93 80 61 61 42 48 51 56 61 59 51 55 56 45 43 33 38 41 29 24 18 36 18 49 65 76 82 79 64 60 55 48 52 50 53 52 82 87 86 83 90 86
87 92 75 68 62 52 45 30 44 44 47 52 50 49 48 52 43 30 45 44 43 22 20 20 19 46 46 67 43 50 56 43 50 51 59 69 61 69 76 81 86 90 84 80
77 74 72 58 63 61 59 55 49 52 55 60 59 52 46 42 38 54 55 60 43 32 22 30 51 62 59 62 58 54 44 36 41 51 56 64 67 67 74 81 78 72 62 62
63 56 60 63 62 62 60 73 65 61 53 50 46 43 41 43 62 63 65 71 54 40 30 37 43 50 57 60 48 39 34 38 49 50 46 49 53 57 57 53 46 48 57 58
51 63 54 63 64 67 60 71 73 70 54 55 50 46 37 57 73 72 76 82 65 49 41 50 45 39 47 41 36 30 29 31 29 31 32 33 41 40 39 34 39 55 60 64
40 52 63 63 58 56 57 58 65 66 62 53 49 49 45 62 78 81 84 86 73 65 59 54 50 54 48 43 39 41 43 42 38 37 39 41 47 39 41 47 45 55 68 73
47 60 68 66 65 61 52 53 51 50 50 50 49 50 51 64 80 79 77 78 72 70 67 67 66 63 60 46 30 38 34 38 37 44 40 43 50 60 52 54 56 64 70 75
56 63 66 62 59 60 54 46 48 49 47 42 39 28 37 54 73 84 83 84 80 81 78 73 72 69 67 68 62 53 42 44 48 53 63 62 69 69 62 63 60 69 73 78
52 54 56 54 58 64 53 52 55 51 54 44 50 38 37 38 43 74 88 85 83 84 83 82 79 76 78 76 71 70 60 62 64 65 72 72 68 60 60 60 64 67 64 63
50 53 52 56 59 58 55 57 60 57 51 52 58 59 50 43 42 41 52 89 92 91 90 89 84 80 81 71 71 74 78 83 76 72 72 68 64 56 55 56 55 59 60 59
49 47 47 53 56 58 57 58 56 54 51 58 62 62 64 57 50 45 53 56 66 81 82 79 74 76 74 75 76 76 79 73 72 71 63 62 64 65 64 61 61 59 65 73
47 50 50 54 55 56 57 58 64 62 57 58 60 61 67 65 65 63 59 62 69 72 69 69 77 82 77 70 70 69 69 67 68 72 73 73 76 73 71 73 72 70 75 80
55 54 53 59 61 62 64 64 66 65 67 66 68 70 69 72 73 73 70 68 70 73 74 76 75 73 73 74 74 74 75 77 76 76 77 74 73 79 74 75 84 88 89 89
58 61 60 60 61 64 68 72 70 69 69 70 73 79 80 84 83 79 81 79 73 76 73 80 83 79 77 77 80 82 85 87 90 91 88 85 83 88 89 92 95 95 95 97
67 65 63 65 68 68 65 67 71 72 72 77 76 76 80 82 84 86 81 74 73 71 75 81 83 84 83 81 84 86 90 88 89 91 92 96 96 97 99 100 99 101 102 103

GFSNGP_250_spd_015.txt.gz
Wind_Speed
68 66 69 61 53 46 35 35 29 38 37 43 39 30 29 32 49 62 64 59 58 58 57 57 56 54 54 52 50 47 48 50 46 44 45 45 48 49 49 49 47 47 46 44
73 72 74 66 58 50 46 45 43 40 32 39 51 41 34 33 36 40 52 64 66 65 64 62 63 60 59 58 55 54 54 55 53 50 52 51 52 52 52 53 53 52 52 48
80 80 79 72 54 57 55 52 51 44 46 49 46 48 44 38 36 35 38 39 53 70 71 69 69 69 66 64 63 59 59 59 58 56 57 57 56 57 56 57 56 57 56 53
84 87 86 63 71 71 66 60 56 53 53 50 48 50 51 41 35 36 38 39 40 44 58 75 77 75 74 71 66 66 67 66 63 64 64 62 61 61 60 61 61 61 61 57
95 91 81 77 81 81 76 67 62 54 54 55 54 53 49 45 40 38 39 39 40 41 44 50 64 77 82 77 75 72 72 70 72 71 68 68 68 67 65 65 65 63 61 59
101 95 89 83 83 83 83 76 66 61 59 60 60 54 50 53 52 49 45 44 46 44 45 49 56 64 72 78 83 79 77 77 76 78 75 71 74 72 69 68 68 68 64 64
105 101 94 91 89 86 89 72 73 70 67 67 65 62 60 56 58 55 53 53 48 48 45 48 54 61 65 72 73 77 85 85 83 81 80 79 78 75 77 78 76 73 70 70
108 103 98 94 92 93 87 81 77 76 75 73 69 67 65 64 61 62 59 57 54 54 56 52 54 58 61 64 66 71 78 84 85 85 83 82 80 80 80 84 85 80 77 76
112 107 100 98 97 97 90 87 83 83 79 76 72 71 69 67 64 66 66 65 60 62 61 60 62 60 58 57 60 64 67 68 75 80 81 83 81 83 85 89 90 81 80 80
118 113 105 106 100 100 90 90 82 80 81 78 78 74 70 70 69 70 72 71 68 64 65 63 61 59 51 50 52 54 55 56 55 59 64 61 69 65 60 71 82 69 69 69
126 122 114 108 104 101 96 91 82 84 84 87 82 81 76 75 75 75 76 76 72 64 61 63 65 62 59 50 49 51 52 53 50 29 36 42 49 58 62 59 55 43 43 41
112 119 119 114 112 110 107 95 91 93 92 97 92 90 91 88 82 79 74 75 73 64 63 52 61 63 50 41 34 36 34 35 31 26 33 42 55 62 38 28 20 25 30 46
78 96 108 110 104 74 103 72 86 95 101 104 103 98 94 91 86 84 76 71 67 66 54 40 27 18 21 25 33 43 49 47 42 29 30 26 26 18 16 24 20 32 42 51
65 79 98 101 100 104 68 58 77 88 87 91 89 90 92 93 86 82 74 67 64 50 51 57 48 43 43 37 38 45 53 69 61 48 26 26 30 29 25 38 28 40 75 72
63 75 84 91 76 59 50 54 61 66 68 71 73 72 70 71 71 70 70 58 49 53 55 61 55 50 45 32 19 26 44 28 34 19 36 56 39 42 50 55 55 65 72 77
60 62 80 92 72 80 66 63 63 54 49 51 49 49 54 54 57 57 62 54 54 53 59 66 59 43 42 21 10 18 29 36 37 50 93 80 52 61 77 76 70 73 76 80
58 66 78 89 90 79 84 77 57 46 42 38 43 56 51 51 54 55 50 54 62 64 64 66 66 57 39 29 29 31 36 38 39 54 66 70 71 72 72 65 67 78 82 88
51 62 75 89 102 91 86 91 59 51 54 53 51 60 58 56 55 50 50 59 64 64 66 68 69 66 58 38 33 42 39 54 62 61 63 66 62 67 66 60 64 67 71 70
53 65 70 85 91 90 94 69 69 64 61 56 61 67 60 52 50 49 57 61 65 62 64 72 72 70 72 60 55 54 53 50 61 59 60 62 65 54 51 53 53 56 59 63
47 53 73 79 74 72 57 60 59 58 63 54 66 64 60 60 50 48 60 68 67 66 66 70 78 82 76 73 70 62 61 60 49 45 48 53 54 59 61 66 70 70 68 61
38 45 48 50 53 56 60 68 57 57 59 61 71 69 68 64 62 55 62 71 71 67 70 79 89 94 84 80 80 78 73 72 72 67 66 67 71 74 80 75 73 73 69 71
32 35 31 35 49 57 60 63 56 56 56 58 54 55 65 65 62 63 68 71 78 79 78 86 88 97 94 90 90 88 86 83 80 81 82 86 82 84 85 83 77 72 74 75
34 39 40 42 41 43 57 56 58 61 52 48 52 55 58 58 59 57 61 63 64 67 76 77 73 75 88 94 96 97 94 91 96 93 87 89 94 92 91 80 77 73 73 72
41 37 45 45 47 47 52 55 61 62 60 57 57 57 57 63 61 62 62 61 58 57 56 62 66 70 83 85 82 87 85 88 95 92 91 91 86 76 75 81 78 79 74 78
40 42 44 46 48 53 54 54 58 59 62 64 63 63 64 66 65 65 67 68 71 70 68 66 69 71 66 65 66 69 74 76 81 85 88 83 80 81 82 82 87 85 83 81
46 43 47 52 54 57 58 58 62 63 65 68 68 65 68 70 70 73 74 76 78 78 80 77 76 77 80 79 77 77 76 84 88 88 90 92 95 99 97 91 89 89 89 87
53 55 55 57 62 63 63 67 69 69 69 71 73 73 73 73 74 75 75 77 78 79 82 85 87 88 89 88 86 85 88 87 93 101 104 105 103 101 98 97 97 96 96 96